This is the latest recevied weather packets stored in our database for station/object W4OTS. If no packets are shown the sender has not sent any weather packets the latest 10 day(s).
| Time | Temp. | Humidity | Pressure | Rain* | Wind** | Luminosity | Snow |
|---|---|---|---|---|---|---|---|
| 1778179389 | 22.22° C | 81% | 1009.9 hPa | 0 mm | - | 35 W/m² | - |
| 1778179085 | 22.78° C | 82% | 1009.8 hPa | 0 mm | - | 68 W/m² | - |
| 1778178783 | 22.78° C | 79% | 1010 hPa | 0 mm | - | 148 W/m² | - |
| 1778178479 | 22.78° C | 81% | 1010.3 hPa | 0 mm | - | 150 W/m² | - |
| 1778178175 | 22.78° C | 82% | 1010.4 hPa | 0 mm | - | 166 W/m² | - |
| 1778177872 | 23.33° C | 80% | 1010.3 hPa | 0 mm | - | 178 W/m² | - |
| 1778177567 | 22.78° C | 83% | 1010.3 hPa | 0 mm | - | 287 W/m² | - |
| 1778177264 | 22.78° C | 83% | 1010.4 hPa | 0 mm | - | 349 W/m² | - |
| 1778176962 | 23.33° C | 82% | 1010.1 hPa | 0 mm | - | 509 W/m² | - |
| 1778176657 | 23.33° C | 83% | 1010.3 hPa | 0 mm | - | 568 W/m² | - |
| 1778176354 | 22.78° C | 83% | 1010.3 hPa | 0 mm | - | 651 W/m² | - |
| 1778176051 | 23.33° C | 80% | 1010.3 hPa | 0 mm | - | 167 W/m² | - |
| 1778175749 | 22.78° C | 81% | 1010.4 hPa | 0 mm | - | 737 W/m² | - |
| 1778175447 | 22.78° C | 80% | 1010.5 hPa | 0 mm | - | 731 W/m² | - |
| 1778175143 | 22.78° C | 82% | 1010.5 hPa | 0 mm | - | 185 W/m² | - |
| 1778174839 | 22.78° C | 85% | 1010.7 hPa | 0 mm | - | 717 W/m² | - |
| 1778174531 | 22.22° C | 83% | 1010.5 hPa | 0 mm | - | 747 W/m² | - |
| 1778174231 | 21.67° C | 87% | 1010.7 hPa | 0 mm | - | 838 W/m² | - |
| 1778173929 | 22.22° C | 84% | 1010.6 hPa | 0 mm | - | 121 W/m² | - |
| 1778173625 | 22.22° C | 85% | 1010.7 hPa | 0 mm | - | 652 W/m² | - |
| 1778173323 | 21.67° C | 89% | 1010.8 hPa | 0 mm | - | 495 W/m² | - |
| 1778173018 | 21.11° C | 92% | 1011 hPa | 0 mm | - | 201 W/m² | - |
| 1778172714 | 21.67° C | 91% | 1011.1 hPa | 0 mm | - | 147 W/m² | - |
| 1778172410 | 21.67° C | 93% | 1011.2 hPa | 0 mm | - | 789 W/m² | - |
| 1778172108 | 21.67° C | 93% | 1011.1 hPa | 0 mm | - | 125 W/m² | - |
* Rain latest hour (hover to see other rain measurements)
** Current wind speed in m/s (hover to see current wind gust speed)